Probability
0 0 0 0 0 0 0 0 0 0 0 0 0 0 0 0 0 0 0 0 0 1 3 6 8 9 11 15 20 21 20 19 17 16 17 18 19 22 23 22 21 21 22 22 20 16 13 12 12
0 0 0 0 0 0 0 0 0 0 0 0 0 0 0 0 0 0 0 0 0 1 3 5 7 9 10 13 17 19 20 19 16 15 15 17 19 22 24 23 23 24 26 26 25 21 17 15 14
0 0 0 0 0 0 0 0 0 0 0 0 0 0 0 0 0 0 0 0 0 1 2 4 6 8 9 10 13 17 20 20 17 14 14 17 19 23 25 26 26 29 32 31 29 26 21 17 17
0 0 0 0 0 0 0 0 0 0 0 0 0 0 0 0 0 0 0 0 0 1 2 4 5 6 7 8 10 13 19 21 19 15 13 15 18 22 25 26 28 32 34 32 30 27 22 18 17
0 0 0 0 0 0 0 0 0 0 0 0 0 0 0 0 0 0 0 0 0 0 1 3 5 5 6 8 8 11 15 20 20 17 14 14 17 21 24 26 28 30 32 30 28 25 21 17 16
0 0 0 0 0 0 0 0 0 0 0 0 0 0 0 0 0 0 0 0 0 0 1 3 4 4 6 7 8 10 13 16 19 19 17 15 16 19 23 26 27 27 28 27 25 21 17 15 16
0 0 0 0 0 0 0 0 0 0 0 0 0 0 0 0 0 0 0 0 0 1 2 3 4 4 6 7 7 9 11 14 16 18 17 15 14 16 21 24 25 25 25 25 23 19 15 15 16
0 0 0 0 0 0 0 0 0 0 0 0 0 0 0 0 0 0 0 0 0 1 3 4 4 4 5 6 7 8 11 12 13 14 14 11 10 12 15 18 20 22 23 24 24 20 17 16 16
0 0 0 0 0 0 0 0 0 0 0 0 0 0 0 0 0 0 0 0 1 2 3 4 5 5 5 6 6 7 9 10 11 11 10 8 9 11 11 10 14 18 20 21 21 19 17 15 14
0 0 0 0 0 0 0 0 0 0 0 0 0 0 0 0 0 0 0 0 2 3 3 4 5 5 4 6 6 7 7 8 8 9 8 8 11 14 12 11 12 16 18 18 16 14 15 14 12
0 0 0 0 0 0 0 0 0 0 0 0 0 0 0 0 0 0 0 0 1 2 2 3 4 4 4 5 6 6 6 6 7 7 7 9 14 17 18 17 16 16 17 17 14 12 13 12 11
0 0 0 0 0 0 0 0 0 0 0 0 0 0 0 0 0 0 0 0 0 1 1 2 3 3 3 4 6 6 6 6 6 5 6 9 12 16 20 20 19 17 16 17 16 15 13 11 9
0 0 0 0 0 0 0 0 0 0 0 0 0 0 0 0 0 0 0 0 0 0 0 1 3 4 3 4 6 6 6 6 5 3 5 7 10 12 16 17 17 15 14 14 15 15 12 9 7
0 0 0 0 0 0 0 0 0 0 0 0 0 0 0 0 0 0 0 0 0 0 0 0 2 3 3 4 6 6 6 6 3 2 4 6 7 8 10 12 13 12 10 10 11 11 10 7 5
0 0 0 0 0 0 0 0 0 0 0 0 0 0 0 0 0 0 0 0 0 0 0 0 0 1 2 4 6 6 6 5 2 1 3 5 5 6 6 7 9 9 8 8 8 7 6 4 3
0 0 0 0 0 0 0 0 0 0 0 0 0 0 0 0 0 0 0 0 0 0 0 0 0 0 1 3 6 6 6 5 2 1 2 3 4 4 3 3 5 7 7 7 6 4 3 3 2
0 0 0 0 0 0 0 0 0 0 0 0 0 0 0 0 0 0 0 0 0 0 0 0 0 0 1 3 5 6 6 4 1 0 1 2 2 3 2 2 4 6 6 6 4 2 2 3 2
0 0 0 0 0 0 0 0 0 0 0 0 0 0 0 0 0 0 0 0 0 0 0 0 0 0 1 2 4 6 6 3 1 0 0 1 1 1 2 2 4 7 7 4 2 0 1 2 1
0 0 0 0 0 0 0 0 0 0 0 0 0 0 0 0 0 0 0 0 0 0 0 0 0 0 0 1 4 6 5 2 0 0 0 0 0 1 2 2 3 6 7 4 1 0 0 1 1
0 0 0 0 0 0 0 0 0 0 0 0 0 0 0 0 0 0 0 0 0 0 0 0 0 0 0 1 3 5 4 1 0 0 0 0 0 1 2 3 3 4 5 4 1 0 0 1 2
0 0 0 0 0 0 0 0 0 0 0 0 0 0 0 0 0 0 0 0 0 0 0 0 0 0 0 0 2 2 2 0 0 0 0 0 0 1 2 3 2 3 5 4 2 0 0 1 2
0 0 0 0 0 0 0 0 0 0 0 0 0 0 0 0 0 0 0 0 0 0 0 0 0 0 0 0 1 1 0 0 0 0 0 0 0 1 2 2 2 3 4 3 2 0 0 1 2
0 0 0 0 0 0 0 0 0 0 0 0 0 0 0 0 0 0 0 0 0 0 0 0 0 0 0 1 2 2 0 0 0 0 0 0 0 0 1 2 3 3 3 2 1 0 0 1 2
0 0 0 0 0 0 0 0 0 0 0 0 0 0 0 0 0 0 0 0 0 0 0 0 0 0 0 0 1 1 0 0 0 0 0 0 0 0 0 1 3 3 2 1 0 0 0 1 2
0 0 0 0 0 0 0 0 0 0 0 0 0 0 0 0 0 0 0 0 0 0 0 0 0 0 0 0 0 0 0 0 0 0 0 0 0 0 0 0 1 1 1 0 0 0 0 1 2
0 0 0 0 0 0 0 0 0 0 0 0 0 0 0 0 0 0 0 0 0 0 0 0 0 0 0 0 0 0 0 0 0 0 0 0 0 0 0 0 0 0 0 0 0 0 0 1 2
0 0 0 0 0 0 0 0 0 0 0 0 0 0 0 0 0 0 0 0 0 0 0 0 0 0 0 0 0 0 0 0 0 0 0 0 0 0 0 0 0 0 0 0 0 0 0 1 2
0 0 0 0 0 0 0 0 0 0 0 0 0 0 0 0 0 0 0 0 0 0 0 0 0 0 0 0 0 0 0 0 0 0 0 0 0 0 0 0 0 0 0 0 0 0 0 0 1
0 0 0 0 0 0 0 0 0 0 0 0 0 0 0 0 0 0 0 0 0 0 0 0 0 0 0 0 0 0 0 0 0 0 0 0 0 0 0 0 0 0 0 0 0 0 0 0 0
0 0 0 0 0 0 0 0 0 0 0 0 0 0 0 0 0 0 0 0 0 0 0 0 0 0 0 0 0 0 0 0 0 0 0 0 0 0 0 0 0 0 0 0 0 0 0 0 0
Wind_Speed
5 3 3 3 5 6 6 3 3 4 2 2 3 3 2 2 3 4 5 9 11 10 10 11 14 14 11 9 7 5 3 1 2 5 7 8 10 11 12 13 13 13 13 13 13 12 12 12 12
3 2 4 4 6 7 5 4 5 2 2 2 1 2 1 1 3 4 5 10 11 10 10 11 15 14 12 10 8 6 4 3 2 3 5 7 9 10 11 12 13 13 13 13 13 12 12 12 12
1 2 4 5 6 6 3 4 3 2 2 2 1 1 2 2 3 4 8 11 10 10 9 11 14 15 13 11 9 7 6 4 3 2 3 5 7 9 10 10 11 12 12 12 12 12 12 12 12
3 3 3 6 7 2 0 4 1 1 1 2 3 1 1 3 3 6 9 11 11 10 10 10 14 15 14 11 11 9 7 5 4 3 3 4 6 8 9 9 9 10 11 12 12 12 12 12 12
2 4 6 6 6 3 1 1 1 2 1 2 3 3 1 2 4 7 9 11 11 11 10 10 13 14 13 12 10 10 8 6 5 4 3 4 5 6 7 9 9 9 11 12 12 13 13 13 13
3 4 6 7 6 4 2 0 2 3 2 2 4 5 1 2 5 9 10 11 10 10 9 8 10 11 12 12 10 10 9 7 6 5 4 4 5 5 6 8 9 10 10 11 12 13 13 13 13
3 4 4 3 4 5 3 1 2 3 4 3 4 5 2 0 7 10 11 10 10 9 9 8 8 8 9 10 10 9 9 7 6 6 5 4 4 5 7 7 8 10 11 11 12 13 13 14 14
1 3 3 4 5 4 2 1 2 5 4 3 4 5 3 6 9 11 10 9 9 8 8 8 8 8 8 7 8 8 8 7 6 5 5 5 5 6 7 7 6 7 9 11 11 12 13 14 13
2 4 4 3 3 2 1 2 2 3 5 5 5 6 7 9 10 10 9 9 9 8 8 8 8 7 7 7 7 7 6 5 5 4 3 4 4 5 6 7 6 7 7 9 11 12 13 12 12
2 4 2 1 0 1 2 4 5 4 7 7 6 6 7 8 9 10 10 11 10 10 10 8 8 8 7 6 5 5 4 4 4 4 4 3 4 4 5 5 6 7 8 8 9 11 11 11 9
1 1 2 2 1 3 4 5 4 7 8 7 7 7 7 9 9 9 10 10 11 10 10 9 8 8 7 5 4 3 3 3 4 4 4 4 4 3 3 3 4 6 7 7 7 8 8 9 7
1 1 1 1 1 4 6 5 6 9 9 6 7 7 8 9 9 9 10 10 10 10 10 9 8 7 7 6 4 4 3 3 4 4 4 3 3 3 3 3 4 4 4 5 6 5 7 9 10
2 1 2 3 5 6 7 10 10 12 11 8 7 8 9 10 10 9 9 9 10 10 9 9 9 8 7 6 5 5 4 4 5 4 4 4 4 4 4 4 4 5 4 6 6 7 7 8 9
0 3 5 5 5 4 7 10 8 10 6 6 7 8 8 9 10 9 8 9 10 10 9 8 9 8 8 6 5 5 5 5 5 5 5 5 4 4 4 5 5 5 5 6 6 7 7 7 7
2 3 4 3 3 2 6 10 9 7 5 7 8 8 9 9 8 8 9 9 10 9 9 9 9 9 8 8 7 5 5 5 6 6 6 6 6 6 5 5 6 5 5 6 6 7 6 6 7
2 3 3 2 2 1 6 9 3 3 6 9 9 9 8 8 8 8 8 9 9 9 9 9 8 9 9 8 7 6 6 6 6 6 6 7 7 7 6 6 6 6 5 6 6 6 6 7 7
2 3 4 2 2 3 6 12 8 6 9 11 10 9 9 8 8 7 8 8 8 8 8 9 9 9 10 9 7 7 6 6 6 7 7 7 8 8 7 6 6 7 5 6 6 7 6 7 7
2 4 5 6 1 6 11 16 15 11 11 12 10 9 8 8 7 7 8 8 8 8 8 9 10 10 10 8 7 6 6 6 6 7 7 9 8 8 7 7 7 7 6 6 7 8 7 6 6
3 5 8 7 4 8 13 18 18 13 10 10 9 8 7 7 7 7 8 8 8 9 9 9 10 10 8 7 6 6 6 6 6 7 9 9 9 9 8 7 7 7 7 8 9 8 9 7 6
5 7 8 7 3 8 13 19 15 9 8 8 8 7 7 7 7 7 8 8 9 10 10 10 10 10 10 8 7 6 7 7 7 7 9 10 10 9 8 9 7 8 8 10 10 8 6 6 7
7 7 8 9 11 6 10 12 6 3 5 6 7 6 6 7 8 8 8 8 9 10 10 9 11 11 11 10 7 6 6 6 7 8 8 9 10 10 10 10 9 9 9 9 10 10 10 8 8
5 3 7 9 8 5 4 9 5 3 6 6 5 5 6 6 7 8 9 10 10 10 10 11 11 11 11 9 8 8 8 8 9 8 8 9 10 10 10 10 10 10 9 10 10 11 9 10 8
3 3 5 6 6 7 5 7 8 3 6 5 4 4 5 5 7 9 9 10 11 10 10 10 11 11 10 9 8 9 9 9 8 9 10 10 9 10 10 11 10 10 10 11 11 11 11 10 9
2 2 2 3 4 6 5 7 8 4 5 4 4 4 5 6 7 9 9 10 11 10 9 10 11 11 11 10 9 9 12 11 11 10 10 8 8 9 11 10 10 11 10 11 11 12 13 12 12
3 3 3 3 4 5 3 7 11 5 4 5 6 6 6 7 8 9 10 11 11 12 11 11 12 12 12 11 10 10 12 12 12 11 10 9 8 8 10 10 11 11 11 10 11 12 13 13 14
3 3 2 5 6 4 4 10 8 4 5 7 8 8 8 8 9 9 10 11 12 12 12 12 12 13 13 12 11 10 12 9 8 10 10 10 9 9 10 11 12 12 12 11 11 11 13 12 13
4 4 1 2 4 8 8 8 10 7 8 7 7 8 8 9 10 11 11 12 12 12 13 12 13 13 13 12 12 12 11 11 11 11 11 9 10 9 11 11 12 13 12 12 12 11 13 12 12
2 4 4 4 5 8 8 9 6 4 6 6 6 8 9 9 10 12 12 12 12 12 12 13 12 13 13 12 11 10 11 11 11 11 11 11 12 12 11 11 12 12 12 12 13 11 12 13 12
7 6 6 4 4 7 9 7 3 5 5 6 8 9 10 11 12 12 13 13 13 13 12 12 12 12 12 12 11 11 11 11 11 11 11 11 12 11 11 11 11 11 11 12 12 12 13 14 13
7 8 9 7 7 7 9 11 2 5 7 8 10 11 12 13 13 13 14 14 13 13 13 13 13 12 12 11 11 11 11 11 11 11 11 11 11 11 11 11 11 11 11 12 13 13 13 14 14
Wind_Direction
317 287 235 216 212 224 226 184 178 151 136 26 339 295 294 321 328 64 51 5 354 352 355 3 3 2 2 6 11 2 353 332 208 194 192 188 185 186 187 185 184 182 181 178 174 169 165 163 161
307 248 209 214 231 223 202 176 182 139 29 350 333 271 242 81 36 47 17 356 350 354 356 6 5 1 3 3 6 5 359 347 296 217 198 195 191 187 189 191 190 187 185 181 178 174 167 165 164
248 262 215 211 227 244 167 140 134 84 18 332 350 351 334 52 50 28 5 346 347 355 357 6 4 1 360 3 360 2 355 347 334 275 216 203 199 194 190 191 194 193 188 184 181 175 171 169 168
218 185 208 230 222 230 113 119 86 177 108 19 321 275 94 41 22 9 353 346 347 352 354 3 1 358 357 359 0 357 357 346 333 321 262 221 212 207 200 193 190 193 193 189 183 178 175 174 172
223 207 205 219 217 176 150 32 307 274 309 358 316 290 263 101 23 358 350 347 345 346 349 354 359 355 356 353 354 354 351 351 337 321 305 254 227 216 211 203 194 190 193 191 188 184 181 179 176
182 215 221 221 199 178 168 317 267 274 284 303 303 285 266 126 4 351 343 340 341 340 342 346 353 351 350 352 346 347 344 342 344 332 315 288 247 223 221 216 204 197 194 194 192 190 186 184 181
211 215 237 230 196 195 161 333 277 296 283 314 318 283 235 212 348 335 332 333 336 338 338 340 339 341 343 344 344 339 340 334 330 331 322 307 279 241 225 219 212 205 200 197 197 194 191 188 186
304 215 203 210 214 193 121 272 308 301 300 334 294 277 285 336 333 326 324 328 332 336 336 334 334 334 332 332 338 333 333 329 319 321 321 312 288 257 235 221 216 209 206 202 200 198 195 191 187
252 224 215 202 217 170 151 266 288 294 276 269 265 288 315 322 320 319 320 324 330 332 333 330 328 328 327 323 330 324 317 318 304 295 306 291 265 255 238 232 227 216 209 208 206 201 199 191 186
234 226 194 93 278 244 270 287 300 269 262 260 261 280 303 310 313 315 319 323 325 326 328 327 324 322 321 319 322 315 306 312 294 285 287 276 269 257 258 239 227 219 215 209 208 206 199 194 191
223 235 140 170 251 288 280 282 277 268 264 266 281 294 305 305 307 309 311 315 318 319 321 319 320 317 315 313 311 312 307 305 294 278 277 278 274 257 247 243 220 217 213 208 202 202 204 203 196
173 155 239 227 279 279 278 279 267 252 261 293 293 293 292 296 300 304 308 313 315 314 318 316 314 314 312 309 303 298 298 296 294 280 270 271 271 261 246 239 239 228 220 214 206 207 209 210 202
204 206 258 265 271 272 267 260 271 262 263 275 280 281 287 294 298 300 303 307 311 311 312 315 312 311 310 305 299 295 292 291 288 279 260 257 259 260 253 239 234 233 227 219 214 212 209 212 207
259 273 275 269 257 253 270 270 257 258 259 261 269 276 288 292 295 299 303 307 308 308 309 310 312 309 306 300 298 292 287 284 283 274 260 250 252 253 255 245 236 234 231 224 219 219 211 209 210
250 270 246 218 244 263 290 268 228 245 257 268 275 282 288 289 290 294 301 303 305 306 308 310 309 310 304 299 294 289 282 280 280 274 262 250 246 249 251 247 238 233 233 229 223 221 217 210 210
216 241 243 158 249 245 281 275 233 220 265 277 284 287 288 288 289 296 300 301 305 304 305 307 305 307 301 294 289 284 280 277 275 275 264 253 244 244 248 245 240 233 232 226 222 217 218 212 209
195 275 285 264 200 267 267 273 273 273 276 280 285 286 288 289 292 299 301 302 304 303 303 302 301 299 298 292 280 276 274 270 271 271 266 257 246 242 244 243 240 231 228 226 222 217 217 218 211
277 283 281 283 295 279 270 271 281 284 276 277 280 282 284 286 294 302 304 306 304 302 299 297 296 296 297 291 280 275 272 269 269 269 264 262 250 243 243 240 238 231 224 224 220 220 216 220 214
268 265 281 288 310 291 276 282 287 288 274 270 274 276 281 289 297 303 303 304 305 304 298 297 296 296 294 288 282 277 276 275 271 268 266 263 254 244 241 238 236 230 225 224 221 219 214 213 203
250 266 279 288 294 292 291 287 284 274 262 267 273 274 281 295 299 304 306 306 306 303 300 295 295 295 291 283 280 274 275 272 271 270 266 263 253 244 241 236 233 231 228 224 220 216 214 213 202
248 255 282 298 312 271 295 280 243 231 249 260 263 270 281 292 301 307 307 306 306 302 300 297 294 294 289 283 277 276 274 272 272 272 264 260 255 248 243 238 233 232 227 221 218 212 212 210 211
267 254 275 290 299 296 327 296 266 247 265 259 263 272 284 296 304 309 308 308 306 304 305 301 296 291 288 280 275 275 277 275 277 275 265 263 254 249 242 238 234 233 230 222 219 214 214 211 210
273 313 281 278 268 280 231 259 271 235 257 256 261 280 295 303 309 310 308 307 306 304 304 302 299 297 299 290 281 279 275 272 273 273 270 267 259 249 242 237 233 232 231 222 219 217 213 213 214
250 254 215 213 235 254 222 241 272 222 237 255 264 282 298 304 307 308 309 310 310 309 305 303 303 302 304 296 285 278 279 273 272 272 272 269 263 252 242 237 237 232 229 224 218 218 217 215 216
220 265 268 245 231 247 155 243 258 260 249 265 277 286 298 305 306 309 314 316 316 315 312 309 306 305 305 297 293 285 277 272 266 268 270 271 268 260 244 238 236 234 229 226 222 220 219 217 214
197 238 269 287 288 294 226 246 260 279 272 269 274 284 295 301 305 308 310 312 313 313 312 310 308 306 305 301 297 289 282 275 270 268 267 264 262 261 255 243 239 237 232 227 223 222 220 219 217
180 199 339 270 286 275 255 261 278 259 255 260 271 283 293 299 303 307 309 310 310 309 309 309 306 303 301 299 296 289 285 279 275 273 267 263 262 261 254 249 244 238 231 229 224 222 218 217 218
275 157 174 215 270 275 270 258 258 244 253 266 277 291 296 299 303 308 308 308 308 306 306 307 305 302 300 298 294 290 288 284 280 273 271 269 267 262 257 253 249 240 232 230 223 222 217 216 218
173 185 207 219 255 271 283 272 222 248 272 284 291 299 304 303 303 304 305 306 307 306 306 306 306 303 302 300 296 292 291 287 283 276 272 272 268 261 257 254 251 241 235 228 221 221 217 217 217
219 210 195 218 225 233 270 275 238 259 284 293 299 305 306 307 304 302 303 307 308 306 306 305 305 304 303 301 297 295 295 291 288 281 278 277 272 262 255 254 252 244 238 229 220 220 218 216 216